Regional Weather Roundup
Issued by NWS State College, PA

Home | Current Version | Previous Version | Graphics & Text | Print | Product List | Glossary Off
Versions: 1 2 3 4 5 6 7 8 9 10 11 12 13 14 15 16 17 18 19 20 21 22 23 24 25 26 27 28 29 30 31 32 33 34 35 36 37 38 39 40 41 42 43 44 45 46 47 48 49 50

000
ASUS41 KCTP 180803
RWRCTP

REGIONAL WEATHER ROUNDUP
NATIONAL WEATHER SERVICE STATE COLLEGE PA
400 AM EDT FRI AUG 18 2017

Note: "fair" indicates few or no clouds below 12,000 feet with no
significant weather and/or obstructions to visibility.

* = STATION THAT DOES NOT REPORT PRECIPITATION /E.G. RAIN...SNOW...ETC/
    THUNDER OR FOG.

PAZ002>004-007>009-013>016-020>023-029>032-180900-
WESTERN PENNSYLVANIA

CITY           SKY/WX    TMP DP  RH WIND       PRES   REMARKS
ERIE           CLEAR     73  70  90 SW9       29.77S
MEADVILLE      MOCLDY    71  71 100 SW7       29.83S
FRANKLIN*      CLOUDY    70  66  88 SW7       29.85F
NEW CASTLE     CLOUDY    72  71  97 S5        29.84F
BEAVER COUNTY  NOT AVBL
BUTLER*        CLOUDY    72  70  94 SW5       29.86F
PITTSBURGH INT CLOUDY    73  72  96 S3        29.84F
PITTSBURGH     RAIN      71  69  93 S8        29.86F FOG
INDIANA*       CLOUDY    72  72 100 SW8       29.90F
LATROBE        HVY RAIN  72  72 100 S3        29.88F
WASHINGTON CO* CLOUDY    70  68  94 CALM      29.86F
$$

PAZ004>006-010>012-017>019-024>028-033>037-041-042-045-046-049>053-180900-
CENTRAL PENNSYLVANIA

CITY           SKY/WX    TMP DP  RH WIND       PRES   REMARKS
BRADFORD       CLOUDY    72  70  93 MISG      29.86S
DUBOIS         CLOUDY    71  67  87 SW8       29.87F
CLEARFIELD     CLOUDY    73  69  87 SW8       29.87F
JOHNSTOWN      LGT RAIN  70  69  97 W7        29.92F
ALTOONA        CLOUDY    70  70 100 CALM      29.89F FOG
STATE COLLEGE  CLOUDY    73  72  98 SW5       29.87S
WILLIAMSPORT   MOCLDY    77  74  90 CALM      29.82S
SELINSGROVE    CLOUDY    76  74  93 S3        29.85S
FT INDIANTOWN  CLOUDY    74  74 100 CALM      29.86F
CAPITAL CITY   CLOUDY    78  72  81 E5        29.85F
HARRISBURG     CLOUDY    77  74  90 S7        29.84F
YORK           CLOUDY    76  74  93 S3        29.86F
$$

PAZ038>040-043-044-047-048-054-055-060>062-067>071-180900-
EASTERN PENNSYLVANIA

CITY           SKY/WX    TMP DP  RH WIND       PRES   REMARKS
SCRANTON       LGT RAIN  74  72  93 VRB5      29.87R
MOUNT POCONO   LGT RAIN  68  68 100 S8        29.94F VSB 1/2
ALLENTOWN      CLOUDY    76  69  79 S7        29.88F
QUAKERTOWN*    CLOUDY    73  70  88 S3        29.90F
READING        CLOUDY    75  73  93 VRB5      29.85F
LANCASTER      CLOUDY    75  74  96 S5        29.87F
COATESVILLE    CLOUDY    72  70  94 VRB3      29.91F
POTTSTOWN      CLOUDY    73  69  87 S6        29.90F
BLUE BELL      CLOUDY    72  68  88 CALM      29.91F
DOYLESTOWN     CLOUDY    73  69  87 CALM      29.89F
WILLOW GROVE   NOT AVBL
NORTH PHILA    MOCLDY    76  70  82 VRB3      29.91F
PHILADELPHIA   CLOUDY    76  69  79 S8        29.89F
$$




USA.gov is the U.S. government's official web portal to all federal, state and local government web resources and services.